Renton, WA
on Sunday, January 27, 2013

Sunday
Previous Day Next Day
Daily Summary
 ActualAverage (KSEA)Record (KSEA)
Temperature
Mean Temperature °F 43°F  
Max Temperature 43°F 48°F 58°F (1952)
Min Temperature 39°F 37°F 11°F (1957)
Degree Days
Heating Degree Days 24 22  
Month to date heating degree days 622  
Since 1 July heating degree days 2560  
Cooling Degree Days 0 0  
Month to date cooling degree days 0  
Year to date cooling degree days 0  
Moisture
Dew Point 38°F   
Average Humidity 87    
Maximum Humidity 93    
Minimum Humidity 81    
Precipitation
Precipitation 0.03 in 0.16 in 1.61 in (1967)
Month to date precipitation 4.94  
Year to date precipitation 4.94  
Snow
Snow 0.00 in in 14.90 in (1969)
Month to date snowfall  
Since 1 July snowfall  
Snow Depth in   
Wind
Wind Speed 6 mph   
Max Wind Speed 13 mph   
Max Gust Speed 18 mph   
Visibility 9 miles   
Events Rain   

Key: T is trace of precipitation, MM is missing value
Source: NWS Daily Summary
Time(PST)TemperatureDew PointHumidity Pressure Visibility Wind DirectionWind SpeedGust SpeedPrecipitationEvents Conditions
12:53 AM 42.1°F 37.9°F 85% 30.05 in 10.0 miles SSE 4.6 mph - N/A   Overcast
1:53 AM 42.1°F 37.9°F 85% 30.06 in 10.0 miles SSE 5.8 mph - N/A   Overcast
2:53 AM 42.1°F 39.0°F 89% 30.06 in 7.0 miles SE 3.5 mph - N/A   Overcast
3:23 AM 41.0°F 39.2°F 93% 30.04 in 10.0 miles Calm Calm - N/A   Overcast
3:53 AM 42.8°F 37.4°F 81% 30.04 in 10.0 miles SSE 5.8 mph - N/A   Overcast
4:53 AM 41.0°F 39.0°F 93% 30.06 in 5.0 miles South 4.6 mph - N/A   Overcast
5:25 AM 41.0°F 39.2°F 93% 30.04 in 10.0 miles SSE 4.6 mph - N/A   Overcast
5:46 AM 41.0°F 39.2°F 93% 30.04 in 10.0 miles SSE 4.6 mph - N/A   Overcast
5:53 AM 41.0°F 39.0°F 93% 30.06 in 10.0 miles South 3.5 mph - N/A   Overcast
6:53 AM 41.0°F 39.0°F 93% 30.06 in 10.0 miles South 3.5 mph - N/A   Overcast
7:02 AM 41.0°F 39.2°F 93% 30.04 in 10.0 miles Calm Calm - N/A   Overcast
7:53 AM 42.1°F 37.9°F 85% 30.06 in 10.0 miles South 5.8 mph - N/A   Overcast
8:29 AM 42.8°F 37.4°F 81% 30.05 in 10.0 miles SSE 9.2 mph - N/A   Overcast
8:53 AM 42.1°F 37.0°F 82% 30.07 in 10.0 miles SSE 11.5 mph 17.3 mph N/A   Overcast
9:00 AM 42.8°F 37.4°F 81% 30.06 in 10.0 miles SSE 6.9 mph 17.3 mph N/A   Overcast
9:07 AM 42.8°F 37.4°F 81% 30.06 in 10.0 miles SSE 9.2 mph - N/A   Overcast
9:38 AM 42.8°F 37.4°F 81% 30.06 in 10.0 miles SSE 6.9 mph - N/A   Overcast
9:53 AM 42.1°F 37.9°F 85% 30.08 in 10.0 miles SSE 6.9 mph - N/A   Overcast
10:53 AM 42.1°F 39.0°F 89% 30.09 in 6.0 miles North - - 0.00 in Rain Light Rain
11:53 AM 43.0°F 39.0°F 86% 30.07 in 10.0 miles South 11.5 mph 18.4 mph 0.00 in Rain Light Rain
12:53 PM 42.1°F 37.9°F 85% 30.05 in 7.0 miles SSE 10.4 mph - 0.01 in Rain Light Rain
1:53 PM 42.1°F 37.9°F 85% 30.03 in 10.0 miles SSE 12.7 mph - 0.00 in Rain Light Rain
2:01 PM 42.8°F 37.4°F 81% 30.01 in 10.0 miles SSE 9.2 mph 18.4 mph 0.00 in   Overcast
2:53 PM 41.0°F 39.0°F 93% 30.03 in 7.0 miles SSE 6.9 mph - 0.00 in Rain Light Rain
3:53 PM 41.0°F 37.9°F 89% 30.02 in 7.0 miles SSE 10.4 mph - 0.01 in Rain Light Rain
4:53 PM 41.0°F 37.0°F 86% 30.02 in 10.0 miles SE 6.9 mph - 0.01 in   Overcast
5:53 PM 41.0°F 37.0°F 86% 30.02 in 10.0 miles SSE 5.8 mph - N/A   Overcast
6:53 PM 41.0°F 37.9°F 89% 30.02 in 10.0 miles SSE 5.8 mph - N/A   Overcast
7:53 PM 41.0°F 37.0°F 86% 30.03 in 10.0 miles SSE 6.9 mph - N/A   Overcast
8:53 PM 41.0°F 37.0°F 86% 30.03 in 10.0 miles SSE 5.8 mph - 0.00 in   Overcast
9:53 PM 41.0°F 37.0°F 86% 30.02 in 10.0 miles SE 4.6 mph - 0.00 in   Overcast
10:53 PM 39.9°F 37.9°F 93% 30.02 in 10.0 miles SSE 4.6 mph - 0.00 in Rain Light Rain
11:53 PM 39.9°F 37.9°F 93% 30.03 in 10.0 miles SSE 5.8 mph - 0.00 in   Overcast
Moon Phase
Jan. 27 Feb. 03 Feb. 10 Feb. 17 Feb. 25
Sunrise:07:40 AM (PST) Moon Rise:06:10 PM (PST)1/27
Sunset:05:03 PM (PST) Moon Set:07:30 AM (PST)1/27

Copyright © 2014 The Weather Underground, Inc.